STARLINK-32037, 60283

Orbit data source: Space-Track

STARLINK-32037, 60283 is a payload satellite owned by SpaceX/Seattle (US) in LEO that was launched on Sun, 28 Jul 2024 UTC via an FALCON 9 launch vehicle from the Air Force Eastern Test Range (AFETR). Payload-class satellites include a variety of spacecraft equipped with specific instruments for various scientific and technological missions. These include communications satellites like Starlink; space stations such as the ISS; scientific satellites like the Hubble; Earth observation satellites from companies like Planet Labs, Umbra, and HawkEye 360; GPS; miniature CubeSats for education and research; and military/defense satellites.

Loading next visibility...
Identifier
60283, 2024-132F
Orbit
LEO
Last TLE update
11 hours ago
Origin
Manufacturer
SpaceX/Seattle
Mission
Operational spacecraft
Bus & Motor
STARLINK V2M, Unknown motor
Mass
730 kg wet, ~700 kg dry
Launch date (UTC)
2024-07-28 (11 months ago)
Launch vehicle
FALCON 9
Launch site
Air Force Eastern Test Range (AFETR)
Object type
Payload
Rocket body
Debris
Shape & HBR
Unknown
Radar Cross Section
Large (>1 m²)

Expand to show TLE details & history

TLE from 11 hours ago
0 STARLINK-32037
1 60283U 24132F   25169.78268059 -.00001006  00000-0 -21850-4 0  9998
2 60283  53.1589 198.3520 0001102  87.5920 272.5207 15.30195751 51159
Epoch: 2025-06-18T18:47Z
TLE epoch observation values (Epoch: 2025-06-18T18:47:03.602Z)
Latitude
-0.00004°
Longitude
9.32719°
Altitude
476.094 km
Speed
7.629 km/s
True Right ascension
13h 13m 24s
True Declination
0° 00' 00"
Sunlit
Object was in daylight at epoch
Visualization orbit readout
Latitude
-13.92812°
Longitude
-3.43046°
Altitude
479.177 km
Speed
7.626 km/s
Apparent Right ascension
09h 23m 25s
Apparent Declination
-42° 50' 59"
Sunlit
Object is in daylight
Visualization observer readout
Local Sidereal Time
16:31:14
Azimuth
241.27° WSW
Elevation
-36.897°
Doppler factor
1
Orbital elements
Apogee altitude
476.24 km
Perigee altitude
474.729 km
Semi-major axis
6,853.621 km
Eccentricity
0.00011
Inclination
53.1589°
RAAN
198.352°
Arg. of periapsis
87.592°
True anomaly
Unknown
Mean anomaly
272.5207°
Eccentric anomaly
Unknown
Mean motion
3.82528 °/min
Orbital period
94.11 mins
BSTAR
-0.00002185
Loading maneuver chart data...
Loading SW <> Apogee altitude chart data...
Loading historical data...
Loading historical data...
Loading historical data...
Loading historical data...
Loading historical data...
Loading historical data...
Loading historical data...

STARLINK-32037 Visibility forecast

Observer location: undefined°, undefined°

Span
Click to sort rows by Start time (UTC) header in descending order
Start Az.
Max El. time (UTC)
Max El. Az.
Max El.
End time (UTC)
End Az.
5 mins2025-06-19 05:59:53.033Z281.555° WNW2025-06-19 06:01:53.033Z319.347° NNW22.162°2025-06-19 06:04:53.033Z24.092° NE
5 mins2025-06-19 10:56:53.033Z328.335° NNW2025-06-19 10:58:53.033Z15.166° NNE33.844°2025-06-19 11:01:53.033Z102.557° ESE
5 mins2025-06-20 03:52:53.033Z193.108° SSW2025-06-20 03:54:53.033Z131.121° SE33.615°2025-06-20 03:57:53.033Z64.977° ENE
5 mins2025-06-20 05:30:53.033Z284.743° WNW2025-06-20 05:32:53.033Z332.961° NNW24.626°2025-06-20 05:35:53.033Z30.495° NE
|